This is the latest recevied weather packets stored in our database for station/object IK1AMC-3. If no packets are shown the sender has not sent any weather packets the latest 10 day(s).
| Time | Temp. | Humidity | Pressure | Rain* | Wind** | Luminosity | Snow |
|---|---|---|---|---|---|---|---|
| 1778095093 | 17.78° C | 71% | 1008.4 hPa | - | - | - | - |
| 1778093892 | 17.78° C | 70% | 1008.2 hPa | - | - | - | - |
| 1778092691 | 17.78° C | 69% | 1007.8 hPa | - | - | - | - |
| 1778091489 | 17.78° C | 71% | 1007.5 hPa | - | - | - | - |
| 1778090288 | 17.78° C | 71% | 1007.1 hPa | - | - | - | - |
| 1778089087 | 18.33° C | 66% | 1007 hPa | - | - | - | - |
| 1778087885 | 18.89° C | 60% | 1006.9 hPa | - | - | - | - |
| 1778086684 | 18.89° C | 58% | 1006.9 hPa | - | - | - | - |
| 1778085482 | 18.89° C | 58% | 1006.6 hPa | - | - | - | - |
| 1778084281 | 19.44° C | 63% | 1006.7 hPa | - | - | - | - |
| 1778083080 | 19.44° C | 62% | 1006.8 hPa | - | - | - | - |
| 1778081879 | 20° C | 63% | 1006.5 hPa | - | - | - | - |
| 1778080677 | 20° C | 62% | 1006.6 hPa | - | - | - | - |
| 1778079476 | 20° C | 61% | 1006.6 hPa | - | - | - | - |
| 1778078275 | 20° C | 58% | 1006.6 hPa | - | - | - | - |
| 1778077073 | 20.56° C | 59% | 1006.6 hPa | - | - | - | - |
| 1778075872 | 20.56° C | 56% | 1006.8 hPa | - | - | - | - |
| 1778074671 | 20.56° C | 56% | 1007 hPa | - | - | - | - |
| 1778073469 | 21.11° C | 55% | 1007.1 hPa | - | - | - | - |
| 1778072268 | 21.11° C | 58% | 1007.4 hPa | - | - | - | - |
| 1778071067 | 21.67° C | 55% | 1007.2 hPa | - | - | - | - |
| 1778069865 | 20.56° C | 57% | 1007.2 hPa | - | - | - | - |
| 1778068664 | 21.11° C | 56% | 1007.3 hPa | - | - | - | - |
| 1778067462 | 20° C | 60% | 1007.4 hPa | - | - | - | - |
| 1778066261 | 20.56° C | 61% | 1007.6 hPa | - | - | - | - |
* Rain since midnight (hover to see other rain measurements)
** Current wind speed in m/s (hover to see current wind gust speed)